Time,TemperatureF,DewpointF,PressureIn,WindDirection,WindDirectionDegrees,WindSpeedMPH,WindSpeedGustMPH,Humidity,HourlyPrecipIn,Conditions,Clouds,dailyrainin,SoftwareType,DateUTC
2013-06-02 00:00:00,62.5,61.1,27.30,NNW,329,0.4,4.7,94,0.00,--,--,0.00,awk and wget,2013-06-02 04:00:00,
2013-06-02 00:05:00,62.4,61.1,27.30,NNW,330,1.5,5.1,95,0.00,--,--,0.00,awk and wget,2013-06-02 04:05:00,
2013-06-02 00:10:00,62.0,60.7,27.30,NNW,330,2.3,5.1,95,0.00,--,--,0.00,awk and wget,2013-06-02 04:10:00,
2013-06-02 00:15:00,62.1,60.8,27.30,NNW,327,2.1,6.9,95,0.00,--,--,0.00,awk and wget,2013-06-02 04:15:00,
2013-06-02 00:20:00,62.1,61.0,27.30,NNW,328,5.1,8.4,96,0.00,--,--,0.00,awk and wget,2013-06-02 04:20:00,
2013-06-02 00:25:00,62.3,61.4,27.30,NNW,329,3.6,8.4,96,0.00,--,--,0.00,awk and wget,2013-06-02 04:25:00,
2013-06-02 00:30:00,63.4,62.6,27.30,NNW,331,4.0,9.7,97,0.00,--,--,0.00,awk and wget,2013-06-02 04:30:00,
2013-06-02 00:35:00,63.6,62.6,27.30,NNW,330,4.6,9.7,96,0.00,--,--,0.00,awk and wget,2013-06-02 04:35:00,
2013-06-02 00:40:00,63.2,62.1,27.30,NNW,332,4.6,10.1,96,0.00,--,--,0.00,awk and wget,2013-06-02 04:40:00,
2013-06-02 00:45:00,62.6,61.4,27.30,NNW,330,4.7,10.1,95,0.00,--,--,0.00,awk and wget,2013-06-02 04:45:00,
2013-06-02 00:50:00,63.1,61.8,27.29,NNW,331,3.1,10.1,95,0.00,--,--,0.00,awk and wget,2013-06-02 04:50:00,
2013-06-02 00:55:00,63.0,61.6,27.29,NNW,331,2.6,8.5,95,0.00,--,--,0.00,awk and wget,2013-06-02 04:55:00,
2013-06-02 01:00:00,61.8,60.2,27.29,NNW,328,3.8,7.9,94,0.00,--,--,0.00,awk and wget,2013-06-02 05:00:00,
2013-06-02 01:10:00,61.8,60.5,27.28,NNW,332,2.8,7.5,95,0.00,--,--,0.00,awk and wget,2013-06-02 05:10:00,
2013-06-02 01:15:00,61.8,60.5,27.29,NNW,328,0.3,7.5,95,0.00,--,--,0.00,awk and wget,2013-06-02 05:15:00,
2013-06-02 01:20:00,62.0,60.6,27.29,NNW,329,2.8,7.8,95,0.00,--,--,0.00,awk and wget,2013-06-02 05:20:00,
2013-06-02 01:25:00,63.6,61.5,27.28,NNW,331,3.8,9.1,92,0.00,--,--,0.00,awk and wget,2013-06-02 05:25:00,
2013-06-02 01:30:00,63.1,59.8,27.28,NNW,329,3.4,9.9,89,0.00,--,--,0.00,awk and wget,2013-06-02 05:30:00,
2013-06-02 01:35:00,62.6,59.7,27.28,NNW,330,4.0,9.9,90,0.00,--,--,0.00,awk and wget,2013-06-02 05:35:00,
2013-06-02 01:40:00,61.8,59.6,27.27,NNW,333,4.7,9.9,92,0.00,--,--,0.00,awk and wget,2013-06-02 05:40:00,
2013-06-02 01:45:00,63.4,60.6,27.27,NNW,330,6.0,9.7,90,0.00,--,--,0.00,awk and wget,2013-06-02 05:45:00,
2013-06-02 01:50:00,63.3,58.8,27.27,NNW,330,0.9,9.7,85,0.00,--,--,0.00,awk and wget,2013-06-02 05:50:00,
2013-06-02 02:00:00,61.4,59.2,27.27,NNW,328,5.5,7.7,92,0.00,--,--,0.00,awk and wget,2013-06-02 06:00:00,
2013-06-02 02:10:00,61.2,59.5,27.28,NNW,328,5.9,10.8,93,0.00,--,--,0.00,awk and wget,2013-06-02 06:10:00,
2013-06-02 02:15:00,62.5,60.7,27.27,NNW,331,3.1,11.6,93,0.00,--,--,0.00,awk and wget,2013-06-02 06:15:00,
2013-06-02 02:20:00,64.3,59.5,27.27,NNW,330,2.4,11.7,84,0.00,--,--,0.00,awk and wget,2013-06-02 06:20:00,
2013-06-02 02:30:00,62.1,58.9,27.27,NNW,330,5.2,11.7,89,0.00,--,--,0.00,awk and wget,2013-06-02 06:30:00,
2013-06-02 02:40:00,62.7,58.1,27.27,NNW,331,2.6,10.9,84,0.00,--,--,0.00,awk and wget,2013-06-02 06:40:00,
2013-06-02 02:45:00,61.4,58.5,27.27,NNW,329,6.3,10.9,90,0.00,--,--,0.00,awk and wget,2013-06-02 06:45:00,
2013-06-02 02:50:00,60.7,58.0,27.27,NNW,332,2.5,10.8,90,0.00,--,--,0.00,awk and wget,2013-06-02 06:50:00,
2013-06-02 03:00:00,59.9,57.9,27.27,NNW,329,2.0,8.6,93,0.00,--,--,0.00,awk and wget,2013-06-02 07:00:00,
2013-06-02 03:05:00,59.7,58.0,27.27,NNW,328,3.4,8.4,94,0.00,--,--,0.00,awk and wget,2013-06-02 07:05:00,
2013-06-02 03:10:00,59.4,58.0,27.27,NNW,329,3.6,7.9,94,0.00,--,--,0.00,awk and wget,2013-06-02 07:10:00,
2013-06-02 03:15:00,59.3,58.0,27.27,NNW,329,2.9,6.5,95,0.00,--,--,0.00,awk and wget,2013-06-02 07:15:00,
2013-06-02 03:20:00,59.9,58.6,27.26,NNW,329,3.8,5.7,95,0.00,--,--,0.00,awk and wget,2013-06-02 07:20:00,
2013-06-02 03:25:00,58.9,57.4,27.27,NNW,328,7.5,7.5,94,0.00,--,--,0.00,awk and wget,2013-06-02 07:25:00,
2013-06-02 03:30:00,59.5,58.3,27.26,NNW,329,9.1,10.6,95,0.00,--,--,0.00,awk and wget,2013-06-02 07:30:00,
2013-06-02 03:35:00,61.5,60.1,27.26,NNW,329,12.4,12.4,95,0.00,--,--,0.00,awk and wget,2013-06-02 07:35:00,
2013-06-02 03:40:00,61.8,59.0,27.26,NNW,329,7.3,12.2,90,0.00,--,--,0.00,awk and wget,2013-06-02 07:40:00,
2013-06-02 03:45:00,61.7,58.6,27.27,NNW,329,10.0,13.4,89,0.00,--,--,0.00,awk and wget,2013-06-02 07:45:00,
2013-06-02 03:50:00,61.8,58.5,27.26,NNW,330,5.3,13.4,88,0.00,--,--,0.00,awk and wget,2013-06-02 07:50:00,
2013-06-02 03:55:00,61.1,58.5,27.26,NNW,329,3.3,13.4,91,0.00,--,--,0.00,awk and wget,2013-06-02 07:55:00,
2013-06-02 04:00:00,61.5,58.8,27.26,NNW,330,5.1,13.1,90,0.00,--,--,0.00,awk and wget,2013-06-02 08:00:00,
2013-06-02 04:05:00,62.1,58.7,27.26,NNW,329,4.4,13.1,88,0.00,--,--,0.00,awk and wget,2013-06-02 08:05:00,
2013-06-02 04:10:00,60.6,57.8,27.26,NNW,329,5.6,13.1,90,0.00,--,--,0.00,awk and wget,2013-06-02 08:10:00,
2013-06-02 04:15:00,60.8,58.5,27.26,NNW,330,5.4,12.2,92,0.00,--,--,0.00,awk and wget,2013-06-02 08:15:00,
2013-06-02 04:20:00,61.0,58.1,27.26,NNW,329,7.6,11.4,90,0.00,--,--,0.00,awk and wget,2013-06-02 08:20:00,
2013-06-02 04:25:00,59.3,57.1,27.27,NNW,329,8.3,11.4,92,0.00,--,--,0.00,awk and wget,2013-06-02 08:25:00,
2013-06-02 04:30:00,59.7,58.1,27.26,NNW,329,5.7,10.6,94,0.00,--,--,0.00,awk and wget,2013-06-02 08:30:00,
2013-06-02 04:35:00,60.3,58.5,27.26,NNW,329,6.6,10.1,93,0.00,--,--,0.00,awk and wget,2013-06-02 08:35:00,
2013-06-02 04:40:00,59.1,57.5,27.26,NNW,330,3.9,10.1,94,0.00,--,--,0.00,awk and wget,2013-06-02 08:40:00,
2013-06-02 04:50:00,59.5,58.1,27.27,NNW,329,10.1,10.1,95,0.00,--,--,0.00,awk and wget,2013-06-02 08:50:00,
2013-06-02 05:00:00,59.6,58.1,27.26,NNW,328,8.9,10.2,94,0.00,--,--,0.00,awk and wget,2013-06-02 09:00:00,
2013-06-02 05:05:00,59.2,57.7,27.26,NNW,328,7.6,10.2,94,0.00,--,--,0.00,awk and wget,2013-06-02 09:05:00,
2013-06-02 05:10:00,59.4,57.9,27.26,NNW,329,8.0,10.0,94,0.00,--,--,0.00,awk and wget,2013-06-02 09:10:00,
2013-06-02 05:15:00,59.2,57.7,27.26,NNW,331,6.0,9.7,95,0.00,--,--,0.00,awk and wget,2013-06-02 09:15:00,
2013-06-02 05:20:00,59.2,57.7,27.26,NNW,328,6.3,8.5,95,0.00,--,--,0.00,awk and wget,2013-06-02 09:20:00,
2013-06-02 05:25:00,59.7,58.3,27.26,NNW,329,5.1,8.4,95,0.00,--,--,0.00,awk and wget,2013-06-02 09:25:00,
2013-06-02 05:30:00,61.0,59.1,27.25,NNW,328,9.2,9.2,93,0.00,--,--,0.00,awk and wget,2013-06-02 09:30:00,
2013-06-02 05:40:00,61.7,58.4,27.26,NNW,329,9.0,9.4,89,0.00,--,--,0.00,awk and wget,2013-06-02 09:40:00,
2013-06-02 05:45:00,61.5,58.6,27.26,NNW,328,11.7,11.7,90,0.00,--,--,0.00,awk and wget,2013-06-02 09:45:00,
2013-06-02 05:50:00,61.1,58.3,27.25,NNW,328,12.0,12.0,90,0.00,--,--,0.00,awk and wget,2013-06-02 09:50:00,
2013-06-02 06:00:00,60.8,58.3,27.26,NNW,328,11.3,11.3,91,0.00,--,--,0.00,awk and wget,2013-06-02 10:00:00,
2013-06-02 06:10:00,61.5,58.7,27.25,NNW,329,8.7,11.1,90,0.00,--,--,0.00,awk and wget,2013-06-02 10:10:00,
2013-06-02 06:15:00,61.8,58.5,27.25,NNW,330,3.1,11.0,89,0.00,--,--,0.00,awk and wget,2013-06-02 10:15:00,
2013-06-02 06:20:00,61.9,58.3,27.25,NNW,329,4.4,10.2,88,0.00,--,--,0.00,awk and wget,2013-06-02 10:20:00,
2013-06-02 06:25:00,60.7,57.6,27.25,SSE,155,2.5,9.7,89,0.00,--,--,0.00,awk and wget,2013-06-02 10:25:00,
2013-06-02 06:30:00,60.0,57.6,27.25,NNW,333,0.8,8.0,91,0.00,--,--,0.00,awk and wget,2013-06-02 10:30:00,
2013-06-02 06:35:00,59.8,57.8,27.25,NNW,333,0.9,7.3,93,0.00,--,--,0.00,awk and wget,2013-06-02 10:35:00,
2013-06-02 06:40:00,59.7,57.8,27.25,NNW,333,1.5,6.7,93,0.00,--,--,0.00,awk and wget,2013-06-02 10:40:00,
2013-06-02 06:45:00,59.7,58.0,27.25,NNW,331,1.0,4.7,93,0.00,--,--,0.00,awk and wget,2013-06-02 10:45:00,
2013-06-02 06:50:00,60.2,58.5,27.26,NNW,332,1.4,4.6,94,0.00,--,--,0.00,awk and wget,2013-06-02 10:50:00,
2013-06-02 06:55:00,60.7,58.9,27.26,NNW,332,0.2,4.6,93,0.00,--,--,0.00,awk and wget,2013-06-02 10:55:00,
2013-06-02 07:00:00,61.0,59.2,27.26,NNW,331,0.3,4.6,93,0.00,--,--,0.00,awk and wget,2013-06-02 11:00:00,
2013-06-02 07:10:00,62.0,59.8,27.26,NNW,333,2.5,4.0,92,0.00,--,--,0.00,awk and wget,2013-06-02 11:10:00,
2013-06-02 07:15:00,62.4,60.2,27.26,NNW,329,3.6,4.9,92,0.00,--,--,0.00,awk and wget,2013-06-02 11:15:00,
2013-06-02 07:20:00,63.5,60.7,27.26,NNW,328,2.0,5.0,90,0.00,--,--,0.00,awk and wget,2013-06-02 11:20:00,
2013-06-02 07:25:00,64.6,60.3,27.26,NNW,329,2.9,5.3,85,0.00,--,--,0.00,awk and wget,2013-06-02 11:25:00,
2013-06-02 07:30:00,65.4,60.1,27.26,NNW,338,2.5,6.0,82,0.00,--,--,0.00,awk and wget,2013-06-02 11:30:00,
2013-06-02 07:35:00,65.4,60.0,27.26,NNW,337,1.3,6.0,82,0.00,--,--,0.00,awk and wget,2013-06-02 11:35:00,
2013-06-02 07:40:00,65.1,60.0,27.26,NNW,328,1.7,6.0,83,0.00,--,--,0.00,awk and wget,2013-06-02 11:40:00,
2013-06-02 07:45:00,65.1,60.5,27.26,NNW,328,3.0,5.1,84,0.00,--,--,0.00,awk and wget,2013-06-02 11:45:00,
2013-06-02 07:50:00,65.2,60.0,27.26,NNW,328,2.9,5.5,83,0.00,--,--,0.00,awk and wget,2013-06-02 11:50:00,
2013-06-02 07:55:00,65.4,60.0,27.26,NNW,330,0.9,7.3,82,0.00,--,--,0.00,awk and wget,2013-06-02 11:55:00,
2013-06-02 08:00:00,66.1,60.4,27.26,NNW,328,3.7,7.3,81,0.00,--,--,0.00,awk and wget,2013-06-02 12:00:00,
2013-06-02 08:10:00,66.4,60.3,27.26,NNW,330,0.4,7.2,80,0.00,--,--,0.00,awk and wget,2013-06-02 12:10:00,
2013-06-02 08:15:00,66.7,60.7,27.26,SE,137,1.3,7.2,81,0.00,--,--,0.00,awk and wget,2013-06-02 12:15:00,
2013-06-02 08:20:00,67.4,60.7,27.26,NNW,329,2.0,9.8,78,0.00,--,--,0.00,awk and wget,2013-06-02 12:20:00,
2013-06-02 08:30:00,67.6,60.5,27.26,NNE,18,4.9,11.4,78,0.00,--,--,0.00,awk and wget,2013-06-02 12:30:00,
2013-06-02 08:35:00,67.9,60.7,27.26,SE,138,3.1,11.4,77,0.00,--,--,0.00,awk and wget,2013-06-02 12:35:00,
2013-06-02 08:40:00,68.4,60.6,27.26,NNW,328,2.7,11.4,76,0.00,--,--,0.00,awk and wget,2013-06-02 12:40:00,
2013-06-02 08:45:00,68.7,60.5,27.26,SE,127,1.8,10.7,74,0.00,--,--,0.00,awk and wget,2013-06-02 12:45:00,
2013-06-02 08:50:00,68.8,61.0,27.26,NNW,331,1.5,9.1,76,0.00,--,--,0.00,awk and wget,2013-06-02 12:50:00,
2013-06-02 08:55:00,69.1,60.9,27.26,NNW,332,1.9,9.4,74,0.00,--,--,0.00,awk and wget,2013-06-02 12:55:00,
2013-06-02 09:00:00,69.8,61.4,27.26,NNW,327,2.2,9.4,74,0.00,--,--,0.00,awk and wget,2013-06-02 13:00:00,
2013-06-02 09:05:00,70.5,61.8,27.26,SE,137,3.0,9.6,73,0.00,--,--,0.00,awk and wget,2013-06-02 13:05:00,
2013-06-02 09:10:00,71.1,61.2,27.26,ESE,108,4.8,27.4,71,0.00,--,--,0.00,awk and wget,2013-06-02 13:10:00,
2013-06-02 09:15:00,71.1,61.4,27.26,ESE,112,4.6,27.4,71,0.00,--,--,0.00,awk and wget,2013-06-02 13:15:00,
2013-06-02 09:20:00,71.0,61.5,27.26,ENE,74,0.9,27.4,71,0.00,--,--,0.00,awk and wget,2013-06-02 13:20:00,
2013-06-02 09:25:00,71.3,61.2,27.26,East,93,2.6,12.9,70,0.00,--,--,0.00,awk and wget,2013-06-02 13:25:00,
2013-06-02 09:30:00,71.2,61.3,27.26,NNW,327,11.2,15.3,70,0.00,--,--,0.00,awk and wget,2013-06-02 13:30:00,
2013-06-02 09:40:00,69.4,63.5,27.26,NNW,329,6.5,15.3,81,0.00,--,--,0.00,awk and wget,2013-06-02 13:40:00,
2013-06-02 09:45:00,69.7,61.8,27.27,NNW,340,8.1,15.3,75,0.00,--,--,0.00,awk and wget,2013-06-02 13:45:00,
2013-06-02 09:50:00,69.7,60.9,27.27,NW,325,11.9,15.3,73,0.00,--,--,0.00,awk and wget,2013-06-02 13:50:00,
2013-06-02 09:55:00,69.0,61.4,27.27,NNW,328,10.0,13.2,76,0.00,--,--,0.00,awk and wget,2013-06-02 13:55:00,
2013-06-02 10:00:00,69.1,61.3,27.27,NNW,327,9.2,13.2,76,0.00,--,--,0.00,awk and wget,2013-06-02 14:00:00,
2013-06-02 10:05:00,68.5,62.1,27.27,NW,325,7.0,13.2,80,0.00,--,--,0.00,awk and wget,2013-06-02 14:05:00,
2013-06-02 10:10:00,68.5,62.8,27.27,NW,325,8.0,11.9,82,0.00,--,--,0.00,awk and wget,2013-06-02 14:10:00,
2013-06-02 10:15:00,68.5,63.3,27.27,NW,325,6.9,11.9,83,0.00,--,--,0.00,awk and wget,2013-06-02 14:15:00,
2013-06-02 10:20:00,68.3,63.0,27.27,NNW,329,5.5,11.9,82,0.00,--,--,0.00,awk and wget,2013-06-02 14:20:00,
2013-06-02 10:25:00,68.8,62.6,27.27,NW,325,4.6,9.1,80,0.00,--,--,0.00,awk and wget,2013-06-02 14:25:00,
2013-06-02 10:30:00,68.9,62.7,27.27,NW,325,9.5,9.5,80,0.00,--,--,0.00,awk and wget,2013-06-02 14:30:00,
2013-06-02 10:35:00,68.7,64.2,27.27,NNW,327,3.6,8.8,85,0.00,--,--,0.00,awk and wget,2013-06-02 14:35:00,
2013-06-02 10:40:00,68.4,63.6,27.27,NNW,328,3.2,9.9,84,0.00,--,--,0.00,awk and wget,2013-06-02 14:40:00,
2013-06-02 10:45:00,68.9,63.9,27.27,NW,326,4.9,9.9,84,0.00,--,--,0.00,awk and wget,2013-06-02 14:45:00,
2013-06-02 10:50:00,69.2,63.7,27.27,NW,325,3.4,9.9,82,0.00,--,--,0.00,awk and wget,2013-06-02 14:50:00,
2013-06-02 11:00:00,68.9,64.4,27.27,ESE,120,3.9,11.1,85,0.00,--,--,0.00,awk and wget,2013-06-02 15:00:00,
2013-06-02 11:05:00,68.8,63.6,27.27,NNW,338,3.4,11.1,83,0.00,--,--,0.00,awk and wget,2013-06-02 15:05:00,
2013-06-02 11:10:00,68.7,64.0,27.27,SE,133,3.3,11.1,84,0.00,--,--,0.00,awk and wget,2013-06-02 15:10:00,
2013-06-02 11:15:00,68.8,64.5,27.27,NNW,327,3.4,9.4,85,0.00,--,--,0.00,awk and wget,2013-06-02 15:15:00,
2013-06-02 11:20:00,68.9,63.8,27.27,NNW,329,1.7,7.8,83,0.00,--,--,0.00,awk and wget,2013-06-02 15:20:00,
2013-06-02 11:25:00,69.1,63.8,27.27,NNW,328,2.8,7.8,83,0.00,--,--,0.00,awk and wget,2013-06-02 15:25:00,
2013-06-02 11:30:00,69.3,64.1,27.28,NNW,329,3.1,9.5,83,0.00,--,--,0.00,awk and wget,2013-06-02 15:30:00,
2013-06-02 11:35:00,69.2,63.6,27.27,NNW,327,2.2,9.6,82,0.00,--,--,0.00,awk and wget,2013-06-02 15:35:00,
2013-06-02 11:40:00,69.4,63.8,27.28,NW,326,2.8,9.6,82,0.00,--,--,0.00,awk and wget,2013-06-02 15:40:00,
2013-06-02 11:45:00,70.2,64.0,27.28,NW,325,8.9,11.9,80,0.00,--,--,0.00,awk and wget,2013-06-02 15:45:00,
2013-06-02 11:50:00,70.4,63.6,27.28,NNW,328,5.8,12.3,79,0.00,--,--,0.00,awk and wget,2013-06-02 15:50:00,
2013-06-02 12:00:00,70.7,63.0,27.27,NW,326,4.1,15.8,76,0.00,--,--,0.00,awk and wget,2013-06-02 16:00:00,
2013-06-02 12:05:00,70.8,63.0,27.27,NW,325,13.3,17.0,76,0.00,--,--,0.00,awk and wget,2013-06-02 16:05:00,
2013-06-02 12:10:00,70.9,62.5,27.27,NW,325,16.2,17.0,74,0.00,--,--,0.00,awk and wget,2013-06-02 16:10:00,
2013-06-02 12:15:00,71.9,63.2,27.27,NW,324,13.7,17.8,74,0.00,--,--,0.00,awk and wget,2013-06-02 16:15:00,
2013-06-02 12:20:00,71.4,60.7,27.27,NW,324,16.9,34.6,68,0.00,--,--,0.00,awk and wget,2013-06-02 16:20:00,
2013-06-02 12:25:00,72.0,61.8,27.27,NW,325,15.7,34.6,70,0.00,--,--,0.00,awk and wget,2013-06-02 16:25:00,
2013-06-02 12:30:00,72.6,61.6,27.27,NW,326,13.3,34.6,68,0.00,--,--,0.00,awk and wget,2013-06-02 16:30:00,
2013-06-02 12:35:00,72.4,60.8,27.27,NW,325,17.7,17.7,66,0.00,--,--,0.00,awk and wget,2013-06-02 16:35:00,
2013-06-02 12:40:00,73.2,61.9,27.27,NW,325,10.8,16.6,67,0.00,--,--,0.00,awk and wget,2013-06-02 16:40:00,
2013-06-02 12:45:00,73.1,62.1,27.27,NW,325,7.6,16.8,68,0.00,--,--,0.00,awk and wget,2013-06-02 16:45:00,
2013-06-02 12:50:00,73.9,61.6,27.27,NW,326,11.0,16.8,65,0.00,--,--,0.00,awk and wget,2013-06-02 16:50:00,
2013-06-02 12:55:00,73.2,62.5,27.27,NW,326,9.8,16.8,69,0.00,--,--,0.00,awk and wget,2013-06-02 16:55:00,
2013-06-02 13:00:00,72.8,61.8,27.26,NW,325,7.3,16.6,68,0.00,--,--,0.00,awk and wget,2013-06-02 17:00:00,
2013-06-02 13:05:00,73.5,63.0,27.26,NW,325,3.7,16.6,69,0.00,--,--,0.00,awk and wget,2013-06-02 17:05:00,
2013-06-02 13:10:00,73.1,61.9,27.26,NW,324,7.0,16.6,67,0.00,--,--,0.00,awk and wget,2013-06-02 17:10:00,
2013-06-02 13:15:00,73.1,62.3,27.26,NW,324,13.5,16.2,68,0.00,--,--,0.00,awk and wget,2013-06-02 17:15:00,
2013-06-02 13:20:00,74.4,62.6,27.26,NW,325,10.1,21.3,66,0.00,--,--,0.00,awk and wget,2013-06-02 17:20:00,
2013-06-02 13:25:00,74.6,62.5,27.26,NNW,327,13.4,21.3,65,0.00,--,--,0.00,awk and wget,2013-06-02 17:25:00,
2013-06-02 13:30:00,74.1,61.8,27.25,NW,325,9.7,21.3,65,0.00,--,--,0.00,awk and wget,2013-06-02 17:30:00,
2013-06-02 13:35:00,74.2,61.8,27.25,NW,324,20.8,20.8,65,0.00,--,--,0.00,awk and wget,2013-06-02 17:35:00,
2013-06-02 13:40:00,73.5,61.9,27.25,NW,324,14.3,15.5,67,0.00,--,--,0.00,awk and wget,2013-06-02 17:40:00,
2013-06-02 13:45:00,73.7,61.6,27.25,NW,324,13.7,16.0,65,0.00,--,--,0.00,awk and wget,2013-06-02 17:45:00,
2013-06-02 13:50:00,73.4,62.4,27.25,NW,324,11.2,16.0,68,0.00,--,--,0.00,awk and wget,2013-06-02 17:50:00,
2013-06-02 13:55:00,72.4,62.5,27.25,NW,323,16.6,19.1,71,0.00,--,--,0.00,awk and wget,2013-06-02 17:55:00,
2013-06-02 14:00:00,71.9,62.5,27.26,NW,324,19.1,21.3,72,0.00,--,--,0.00,awk and wget,2013-06-02 18:00:00,
2013-06-02 14:05:00,69.6,63.0,27.26,NW,323,17.4,22.3,79,0.00,--,--,0.00,awk and wget,2013-06-02 18:05:00,
2013-06-02 14:10:00,68.4,63.0,27.26,NW,324,14.8,22.3,82,0.00,--,--,0.00,awk and wget,2013-06-02 18:10:00,
2013-06-02 14:15:00,68.2,63.4,27.26,NW,324,13.6,22.3,84,0.00,--,--,0.00,awk and wget,2013-06-02 18:15:00,
2013-06-02 14:20:00,67.8,63.9,27.26,NW,324,8.0,19.3,87,0.00,--,--,0.00,awk and wget,2013-06-02 18:20:00,
2013-06-02 14:30:00,67.9,64.6,27.27,NNW,327,8.8,14.6,89,0.00,--,--,0.00,awk and wget,2013-06-02 18:30:00,
2013-06-02 14:35:00,68.2,64.7,27.26,NW,326,6.2,14.6,88,0.00,--,--,0.00,awk and wget,2013-06-02 18:35:00,
2013-06-02 14:40:00,68.3,64.9,27.26,NW,325,4.8,13.9,88,0.00,--,--,0.00,awk and wget,2013-06-02 18:40:00,
2013-06-02 14:45:00,68.5,65.1,27.26,SSE,153,2.4,13.9,89,0.00,--,--,0.00,awk and wget,2013-06-02 18:45:00,
2013-06-02 14:50:00,68.6,65.3,27.26,NW,324,4.2,9.8,89,0.00,--,--,0.00,awk and wget,2013-06-02 18:50:00,
2013-06-02 15:00:00,67.9,65.1,27.27,NW,324,8.4,10.1,90,0.00,--,--,0.00,awk and wget,2013-06-02 19:00:00,
2013-06-02 15:05:00,66.7,64.3,27.27,NW,325,11.2,11.9,92,0.00,--,--,0.00,awk and wget,2013-06-02 19:05:00,
2013-06-02 15:10:00,65.5,63.7,27.26,NW,326,8.3,28.4,93,0.00,--,--,0.00,awk and wget,2013-06-02 19:10:00,
2013-06-02 15:15:00,65.6,63.1,27.26,NNW,328,7.7,28.4,91,0.00,--,--,0.00,awk and wget,2013-06-02 19:15:00,
2013-06-02 15:20:00,65.6,63.1,27.26,NW,326,10.2,28.4,91,0.00,--,--,0.00,awk and wget,2013-06-02 19:20:00,
2013-06-02 15:25:00,65.6,63.1,27.26,NNW,330,7.0,16.6,91,0.00,--,--,0.00,awk and wget,2013-06-02 19:25:00,
2013-06-02 15:30:00,65.4,63.5,27.26,NNW,329,4.0,14.2,93,0.00,--,--,0.00,awk and wget,2013-06-02 19:30:00,
2013-06-02 15:40:00,66.2,64.4,27.26,NNW,327,6.3,8.6,93,0.00,--,--,0.00,awk and wget,2013-06-02 19:40:00,
2013-06-02 15:45:00,66.6,64.6,27.26,NNW,327,5.1,8.6,93,0.00,--,--,0.00,awk and wget,2013-06-02 19:45:00,
2013-06-02 15:50:00,67.0,64.8,27.26,NNW,329,1.8,8.3,92,0.00,--,--,0.00,awk and wget,2013-06-02 19:50:00,
2013-06-02 15:55:00,67.7,65.6,27.25,NNW,336,0.0,6.6,93,0.00,--,--,0.00,awk and wget,2013-06-02 19:55:00,
2013-06-02 16:00:00,68.4,65.7,27.25,NE,53,1.4,5.8,91,0.00,--,--,0.00,awk and wget,2013-06-02 20:00:00,
2013-06-02 16:10:00,69.1,65.2,27.24,ESE,115,0.2,6.3,87,0.00,--,--,0.00,awk and wget,2013-06-02 20:10:00,
2013-06-02 16:15:00,69.4,65.1,27.24,ESE,122,2.6,6.3,86,0.00,--,--,0.00,awk and wget,2013-06-02 20:15:00,
2013-06-02 16:20:00,68.9,64.7,27.24,NNW,329,1.7,5.9,86,0.00,--,--,0.00,awk and wget,2013-06-02 20:20:00,
2013-06-02 16:25:00,68.8,64.2,27.24,East,96,1.8,6.7,85,0.00,--,--,0.00,awk and wget,2013-06-02 20:25:00,
2013-06-02 16:30:00,68.8,65.0,27.24,ESE,102,1.3,6.7,87,0.00,--,--,0.00,awk and wget,2013-06-02 20:30:00,
2013-06-02 16:35:00,68.9,65.7,27.24,SSE,148,0.9,6.7,89,0.00,--,--,0.00,awk and wget,2013-06-02 20:35:00,
2013-06-02 16:40:00,69.7,65.6,27.23,NW,326,4.4,6.4,86,0.00,--,--,0.00,awk and wget,2013-06-02 20:40:00,
2013-06-02 16:45:00,70.0,64.6,27.23,NW,326,4.5,8.0,82,0.00,--,--,0.00,awk and wget,2013-06-02 20:45:00,
2013-06-02 16:50:00,70.1,65.5,27.23,NW,324,3.6,10.2,85,0.00,--,--,0.00,awk and wget,2013-06-02 20:50:00,
2013-06-02 16:55:00,70.4,64.6,27.23,NW,324,6.2,10.2,81,0.00,--,--,0.00,awk and wget,2013-06-02 20:55:00,
2013-06-02 17:00:00,70.5,64.7,27.23,NW,325,5.8,10.2,81,0.00,--,--,0.00,awk and wget,2013-06-02 21:00:00,
2013-06-02 17:05:00,70.4,64.0,27.22,NNW,328,2.2,9.0,80,0.00,--,--,0.00,awk and wget,2013-06-02 21:05:00,
2013-06-02 17:10:00,70.3,63.9,27.22,NNW,328,2.9,8.1,80,0.00,--,--,0.00,awk and wget,2013-06-02 21:10:00,
2013-06-02 17:15:00,70.5,62.7,27.21,North,4,1.1,8.1,76,0.00,--,--,0.00,awk and wget,2013-06-02 21:15:00,
2013-06-02 17:20:00,70.6,63.0,27.21,NNW,328,1.2,7.3,76,0.00,--,--,0.00,awk and wget,2013-06-02 21:20:00,
2013-06-02 17:25:00,70.8,64.1,27.21,NW,324,2.7,7.6,79,0.00,--,--,0.00,awk and wget,2013-06-02 21:25:00,
2013-06-02 17:30:00,70.4,64.7,27.21,NNW,346,1.3,8.7,82,0.00,--,--,0.00,awk and wget,2013-06-02 21:30:00,
2013-06-02 17:35:00,70.8,62.1,27.21,NW,325,7.0,8.7,73,0.00,--,--,0.00,awk and wget,2013-06-02 21:35:00,
2013-06-02 17:40:00,70.5,61.7,27.21,NNW,334,2.5,8.7,73,0.00,--,--,0.00,awk and wget,2013-06-02 21:40:00,
2013-06-02 17:45:00,70.5,60.9,27.20,NW,326,2.5,12.9,71,0.00,--,--,0.00,awk and wget,2013-06-02 21:45:00,
2013-06-02 17:50:00,70.3,61.7,27.20,NW,325,8.4,12.9,74,0.00,--,--,0.00,awk and wget,2013-06-02 21:50:00,
2013-06-02 17:55:00,70.6,61.4,27.20,NW,324,2.2,12.9,72,0.00,--,--,0.00,awk and wget,2013-06-02 21:55:00,
2013-06-02 18:00:00,70.4,61.9,27.20,NW,324,23.3,23.3,74,0.00,--,--,0.00,awk and wget,2013-06-02 22:00:00,
2013-06-02 18:05:00,70.1,62.4,27.21,NW,324,4.1,8.1,76,0.00,--,--,0.00,awk and wget,2013-06-02 22:05:00,
2013-06-02 18:10:00,69.7,64.3,27.21,NNW,329,3.5,8.0,83,0.00,--,--,0.00,awk and wget,2013-06-02 22:10:00,
2013-06-02 18:15:00,69.2,64.7,27.21,NW,324,2.6,7.4,85,0.00,--,--,0.00,awk and wget,2013-06-02 22:15:00,
2013-06-02 18:20:00,68.8,65.1,27.21,NW,324,3.7,5.3,87,0.00,--,--,0.00,awk and wget,2013-06-02 22:20:00,
2013-06-02 18:25:00,68.4,65.2,27.21,NW,325,1.2,5.3,89,0.00,--,--,0.00,awk and wget,2013-06-02 22:25:00,
2013-06-02 18:30:00,67.9,65.2,27.21,NW,325,0.1,5.0,91,0.00,--,--,0.00,awk and wget,2013-06-02 22:30:00,
2013-06-02 18:35:00,67.7,65.5,27.21,North,351,0.4,4.9,92,0.00,--,--,0.00,awk and wget,2013-06-02 22:35:00,
2013-06-02 18:40:00,67.7,65.4,27.21,North,351,0.1,4.9,92,0.00,--,--,0.00,awk and wget,2013-06-02 22:40:00,
2013-06-02 18:45:00,67.2,65.3,27.21,North,351,0.1,4.3,93,0.00,--,--,0.00,awk and wget,2013-06-02 22:45:00,
2013-06-02 18:50:00,66.9,65.2,27.21,North,351,0.1,4.3,94,0.00,--,--,0.00,awk and wget,2013-06-02 22:50:00,
2013-06-02 18:55:00,66.7,65.2,27.21,NNW,340,1.5,5.3,94,0.00,--,--,0.00,awk and wget,2013-06-02 22:55:00,
2013-06-02 19:00:00,66.5,65.0,27.22,NNW,333,1.9,5.3,95,0.00,--,--,0.00,awk and wget,2013-06-02 23:00:00,
2013-06-02 19:10:00,66.3,65.0,27.21,NE,53,1.7,5.9,95,0.00,--,--,0.00,awk and wget,2013-06-02 23:10:00,
2013-06-02 19:15:00,66.2,64.9,27.21,NNE,24,2.7,6.0,95,0.00,--,--,0.00,awk and wget,2013-06-02 23:15:00,
2013-06-02 19:20:00,66.1,64.9,27.21,North,8,0.6,6.0,95,0.00,--,--,0.00,awk and wget,2013-06-02 23:20:00,
2013-06-02 19:25:00,66.1,64.8,27.21,North,4,1.2,6.0,95,0.00,--,--,0.00,awk and wget,2013-06-02 23:25:00,
2013-06-02 19:30:00,65.9,64.8,27.21,NNE,16,2.5,5.4,95,0.00,--,--,0.00,awk and wget,2013-06-02 23:30:00,
2013-06-02 19:35:00,65.9,64.7,27.21,NNE,14,1.3,5.0,95,0.00,--,--,0.00,awk and wget,2013-06-02 23:35:00,
2013-06-02 19:40:00,65.8,64.6,27.22,NNE,14,0.4,4.0,95,0.00,--,--,0.00,awk and wget,2013-06-02 23:40:00,
2013-06-02 19:45:00,65.6,64.5,27.22,North,0,1.9,5.4,96,0.00,--,--,0.00,awk and wget,2013-06-02 23:45:00,
2013-06-02 19:50:00,65.3,64.3,27.21,NNE,12,3.8,6.2,96,0.00,--,--,0.00,awk and wget,2013-06-02 23:50:00,
2013-06-02 19:55:00,65.2,64.3,27.22,NNE,19,2.4,6.2,97,0.00,--,--,0.00,awk and wget,2013-06-02 23:55:00,
2013-06-02 20:00:00,65.1,64.2,27.22,NNW,327,3.3,9.3,96,0.00,--,--,0.00,awk and wget,2013-06-03 00:00:00,
2013-06-02 20:05:00,64.9,64.0,27.22,NNW,330,1.9,9.3,96,0.00,--,--,0.00,awk and wget,2013-06-03 00:05:00,
2013-06-02 20:10:00,65.4,64.2,27.23,SE,145,1.9,9.3,96,0.00,--,--,0.00,awk and wget,2013-06-03 00:10:00,
2013-06-02 20:20:00,65.7,62.8,27.23,NNW,327,2.5,7.4,90,0.00,--,--,0.00,awk and wget,2013-06-03 00:20:00,
2013-06-02 20:25:00,65.6,62.7,27.22,NNW,328,2.9,7.4,90,0.00,--,--,0.00,awk and wget,2013-06-03 00:25:00,
2013-06-02 20:30:00,65.3,62.8,27.22,NNW,329,2.5,9.0,91,0.00,--,--,0.00,awk and wget,2013-06-03 00:30:00,
2013-06-02 20:35:00,65.2,62.9,27.23,NNW,327,4.0,9.3,92,0.00,--,--,0.00,awk and wget,2013-06-03 00:35:00,
2013-06-02 20:40:00,64.9,63.0,27.23,NW,326,5.5,9.3,93,0.00,--,--,0.00,awk and wget,2013-06-03 00:40:00,
2013-06-02 20:45:00,64.7,63.1,27.23,NW,326,4.6,9.3,94,0.00,--,--,0.00,awk and wget,2013-06-03 00:45:00,
2013-06-02 20:50:00,64.7,63.2,27.23,NNW,327,1.8,9.0,94,0.00,--,--,0.00,awk and wget,2013-06-03 00:50:00,
2013-06-02 20:55:00,64.3,62.9,27.23,NNW,327,1.1,8.5,95,0.00,--,--,0.00,awk and wget,2013-06-03 00:55:00,
2013-06-02 21:00:00,64.3,63.0,27.23,NW,326,3.2,7.3,95,0.00,--,--,0.00,awk and wget,2013-06-03 01:00:00,
2013-06-02 21:05:00,64.1,63.0,27.23,NNW,330,1.5,6.9,95,0.00,--,--,0.00,awk and wget,2013-06-03 01:05:00,
2013-06-02 21:10:00,64.2,63.1,27.24,North,8,2.2,7.4,96,0.00,--,--,0.00,awk and wget,2013-06-03 01:10:00,
2013-06-02 21:15:00,64.2,63.1,27.24,NW,326,6.7,11.2,96,0.00,--,--,0.00,awk and wget,2013-06-03 01:15:00,
2013-06-02 21:20:00,64.2,63.1,27.23,NNW,327,11.2,14.4,96,0.00,--,--,0.00,awk and wget,2013-06-03 01:20:00,
2013-06-02 21:25:00,64.0,62.6,27.24,NW,326,12.1,14.4,95,0.00,--,--,0.00,awk and wget,2013-06-03 01:25:00,
2013-06-02 21:30:00,63.8,62.4,27.24,NNW,328,5.4,14.4,95,0.00,--,--,0.00,awk and wget,2013-06-03 01:30:00,
2013-06-02 21:35:00,63.8,62.6,27.24,NW,326,6.7,12.8,95,0.00,--,--,0.00,awk and wget,2013-06-03 01:35:00,
2013-06-02 21:40:00,63.8,62.6,27.24,NW,326,4.9,10.4,95,0.00,--,--,0.00,awk and wget,2013-06-03 01:40:00,
2013-06-02 21:45:00,63.9,62.7,27.24,NNW,328,4.8,9.9,95,0.00,--,--,0.00,awk and wget,2013-06-03 01:45:00,
2013-06-02 21:50:00,63.9,62.7,27.24,NNW,327,2.8,9.9,95,0.00,--,--,0.00,awk and wget,2013-06-03 01:50:00,
2013-06-02 21:55:00,63.7,62.3,27.24,NNW,328,2.6,8.8,95,0.00,--,--,0.00,awk and wget,2013-06-03 01:55:00,
2013-06-02 22:00:00,63.7,62.3,27.24,NNW,328,4.1,9.5,95,0.00,--,--,0.00,awk and wget,2013-06-03 02:00:00,
2013-06-02 22:05:00,63.6,62.2,27.24,NNW,329,4.2,9.5,95,0.00,--,--,0.00,awk and wget,2013-06-03 02:05:00,
2013-06-02 22:10:00,63.4,62.1,27.25,NNW,327,5.5,10.1,95,0.00,--,--,0.00,awk and wget,2013-06-03 02:10:00,
2013-06-02 22:15:00,63.2,61.9,27.25,NNW,327,8.4,11.2,95,0.00,--,--,0.00,awk and wget,2013-06-03 02:15:00,
2013-06-02 22:20:00,62.9,61.7,27.25,NNW,327,10.5,15.3,95,0.00,--,--,0.00,awk and wget,2013-06-03 02:20:00,
2013-06-02 22:25:00,62.8,61.5,27.25,NNW,327,9.8,15.3,95,0.00,--,--,0.00,awk and wget,2013-06-03 02:25:00,
2013-06-02 22:30:00,62.8,61.5,27.25,NNW,327,9.8,15.3,95,0.00,--,--,0.00,awk and wget,2013-06-03 02:30:00,
2013-06-02 22:35:00,62.6,61.4,27.25,NNW,327,9.8,15.1,95,0.00,--,--,0.00,awk and wget,2013-06-03 02:35:00,
2013-06-02 22:40:00,62.5,61.4,27.24,NNW,327,8.1,10.4,96,0.00,--,--,0.00,awk and wget,2013-06-03 02:40:00,
2013-06-02 22:45:00,62.6,61.6,27.24,NNW,327,8.0,10.4,96,0.00,--,--,0.00,awk and wget,2013-06-03 02:45:00,
2013-06-02 22:50:00,62.5,61.6,27.24,NNW,328,7.3,9.8,96,0.00,--,--,0.00,awk and wget,2013-06-03 02:50:00,
2013-06-02 23:00:00,62.6,61.7,27.24,NNW,328,5.7,8.9,96,0.00,--,--,0.00,awk and wget,2013-06-03 03:00:00,
2013-06-02 23:10:00,62.5,61.6,27.24,NNW,327,5.8,8.5,96,0.00,--,--,0.00,awk and wget,2013-06-03 03:10:00,
2013-06-02 23:15:00,62.3,61.5,27.24,NNW,330,2.5,8.5,97,0.00,--,--,0.00,awk and wget,2013-06-03 03:15:00,
2013-06-02 23:20:00,62.2,61.5,27.24,NNW,336,0.2,8.5,97,0.00,--,--,0.00,awk and wget,2013-06-03 03:20:00,
2013-06-02 23:25:00,62.1,61.5,27.24,NNW,330,3.9,8.3,97,0.00,--,--,0.00,awk and wget,2013-06-03 03:25:00,
2013-06-02 23:30:00,62.1,61.5,27.24,NNE,27,2.0,6.9,97,0.00,--,--,0.00,awk and wget,2013-06-03 03:30:00,
2013-06-02 23:40:00,62.2,61.8,27.24,ESE,111,4.0,7.0,98,0.00,--,--,0.00,awk and wget,2013-06-03 03:40:00,
2013-06-02 23:50:00,62.1,61.7,27.24,ESE,110,3.1,7.0,98,0.00,--,--,0.00,awk and wget,2013-06-03 03:50:00,
2013-06-02 23:55:00,62.1,61.6,27.24,NNW,329,1.7,7.7,98,0.00,--,--,0.00,awk and wget,2013-06-03 03:55:00,